This is the latest recevied weather packets stored in our database for station/object IT9CNT. If no packets are shown the sender has not sent any weather packets the latest 10 day(s).
| Time | Temp. | Humidity | Pressure | Rain* | Wind** | Luminosity | Snow |
|---|---|---|---|---|---|---|---|
| 1788080823 | 32.78° C | 60% | 1014.2 hPa | 0 mm | - | - | - |
| 1788080763 | 33.33° C | 58% | 1014.2 hPa | 0 mm | - | - | - |
| 1788080703 | 33.89° C | 61% | 1014.4 hPa | 0 mm | - | - | - |
| 1788080643 | 33.89° C | 60% | 1014.3 hPa | 0 mm | - | - | - |
| 1788080583 | 33.33° C | 62% | 1014.1 hPa | 0 mm | - | - | - |
| 1788080523 | 33.33° C | 62% | 1014.2 hPa | 0 mm | - | - | - |
| 1788080463 | 33.33° C | 62% | 1014.2 hPa | 0 mm | - | - | - |
| 1788080403 | 33.33° C | 62% | 1014.4 hPa | 0 mm | - | - | - |
| 1788080343 | 32.22° C | 63% | 1014.2 hPa | 0 mm | - | - | - |
| 1788080283 | 32.78° C | 62% | 1014.1 hPa | 0 mm | - | - | - |
| 1788080223 | 32.78° C | 62% | 1014.2 hPa | 0 mm | - | - | - |
| 1788080163 | 32.78° C | 63% | 1014.2 hPa | 0 mm | - | - | - |
| 1788080103 | 32.78° C | 63% | 1014.3 hPa | 0 mm | - | - | - |
| 1788080043 | 32.22° C | 63% | 1014.1 hPa | 0 mm | - | - | - |
| 1788079983 | 32.22° C | 63% | 1014 hPa | 0 mm | - | - | - |
| 1788079923 | 32.22° C | 63% | 1014.1 hPa | 0 mm | - | - | - |
| 1788079863 | 32.22° C | 63% | 1014.3 hPa | 0 mm | - | - | - |
| 1788079803 | 32.78° C | 63% | 1014.3 hPa | 0 mm | - | - | - |
| 1788079743 | 32.78° C | 63% | 1014.2 hPa | 0 mm | - | - | - |
| 1788079683 | 32.78° C | 63% | 1014.1 hPa | 0 mm | - | - | - |
| 1788079623 | 32.22° C | 63% | 1014.2 hPa | 0 mm | - | - | - |
| 1788079563 | 32.22° C | 63% | 1014.2 hPa | 0 mm | - | - | - |
| 1788079503 | 32.22° C | 63% | 1014.1 hPa | 0 mm | - | - | - |
| 1788079443 | 32.22° C | 63% | 1014.2 hPa | 0 mm | - | - | - |
| 1788079383 | 32.78° C | 63% | 1014.4 hPa | 0 mm | - | - | - |
* Rain latest hour (hover to see other rain measurements)
** Current wind speed in m/s (hover to see current wind gust speed)